FW2794 Weather Reports


time (UTC)temp
C
wind
direction
speed
KPH
gust
KPH
rain 1hr
cm
rain 24hr
cm
rain mn
cm
humidity
%
barometer
mb
20260505205905 22 215 6.4 19.3 0.00 0.00 0.00 100 1017.9
20260505205405 22 223 6.4 19.3 0.00 0.00 0.00 100 1017.9
20260505204905 22 219 6.4 19.3 0.00 0.00 0.00 100 1018.1
20260505204405 22 204 6.4 19.3 0.00 0.00 0.00 100 1018.1
20260505202904 22 214 4.8 12.9 0.00 0.00 0.00 100 1018.3
20260505201904 23 219 6.4 17.7 0.00 0.00 0.00 100 1018.3
20260505201405 22 210 6.4 24.1 0.00 0.00 0.00 100 1018.3
20260505200906 22 186 6.4 24.1 0.00 0.00 0.00 100 1018.4
20260505200404 23 192 6.4 17.7 0.00 0.00 0.00 100 1018.4
20260505195402 23 219 4.8 14.5 0.00 0.00 0.00 100 1018.6
20260505194900 22 217 4.8 16.1 0.00 0.00 0.00 100 1018.4
20260505194402 22 223 4.8 16.1 0.00 0.00 0.00 100 1018.7
20260505193901 22 211 4.8 14.5 0.00 0.00 0.00 100 1018.8
20260505191859 23 163 4.8 16.1 0.00 0.00 0.00 100 1019.0
20260505191359 23 228 6.4 16.1 0.00 0.00 0.00 100 1019.0
20260505190858 23 169 8.0 22.5 0.00 0.00 0.00 100 1019.0
20260505190358 22 227 9.7 22.5 0.00 0.00 0.00 100 1019.1
20260505185858 23 217 9.7 25.7 0.00 0.00 0.00 100 1019.3
20260505185358 23 223 8.0 25.7 0.00 0.00 0.00 100 1019.3
20260505184859 23 225 8.0 19.3 0.00 0.00 0.00 100 1019.3
20260505184358 23 223 8.0 14.5 0.00 0.00 0.00 100 1019.3
20260505183859 23 118 8.0 16.1 0.00 0.00 0.00 100 1019.3
20260505183356 23 226 8.0 17.7 0.00 0.00 0.00 100 1019.4
20260505182856 23 221 9.7 24.1 0.00 0.00 0.00 100 1019.3
20260505181856 23 215 6.4 16.1 0.00 0.00 0.00 100 1019.3
20260505180856 23 227 6.4 20.9 0.00 0.00 0.00 100 1019.3
20260505175852 23 221 6.4 14.5 0.00 0.00 0.00 100 1019.3
20260505174853 23 207 8.0 19.3 0.00 0.00 0.00 100 1019.5
20260505174353 23 221 8.0 19.3 0.00 0.00 0.00 100 1019.5
20260505173851 23 217 8.0 19.3 0.00 0.00 0.00 100 1019.5
20260505173350 23 221 8.0 17.7 0.00 0.00 0.00 100 1019.4
20260505172850 22 221 9.7 19.3 0.00 0.00 0.00 100 1019.5
20260505172350 23 233 6.4 19.3 0.00 0.00 0.00 100 1019.4
20260505171350 23 182 6.4 17.7 0.00 0.00 0.00 100 1019.5
20260505170351 23 159 6.4 17.7 0.00 0.00 0.00 100 1019.6
20260505165850 23 207 6.4 19.3 0.00 0.00 0.00 100 1019.5
20260505165350 23 192 4.8 19.3 0.00 0.00 0.00 100 1019.5
20260505164851 23 219 6.4 14.5 0.00 0.00 0.00 100 1019.7
20260505164348 22 221 8.0 16.1 0.00 0.00 0.00 100 1019.7
20260505163849 22 200 9.7 20.9 0.00 0.00 0.00 100 1019.7
20260505163348 22 225 9.7 20.9 0.00 0.00 0.00 100 1019.7
20260505162849 22 218 9.7 17.7 0.00 0.00 0.00 100 1019.6
20260505161347 22 223 6.4 14.5 0.00 0.00 0.00 100 1020.0
20260505160844 22 239 8.0 17.7 0.00 0.00 0.00 100 1020.0
20260505160345 22 100 9.7 17.7 0.00 0.00 0.00 100 1020.1
20260505152841 22 214 6.4 17.7 0.00 0.00 0.00 100 1019.8
20260505152419 22 131 8.0 17.7 0.00 0.00 0.00 100 1019.9
20260505140332 21 224 4.8 12.9 0.00 0.00 0.00 100 1019.7
20260505124829 20 224 4.8 8.0 0.00 0.00 0.00 100 1019.5
20260505124325 19 224 3.2 8.0 0.00 0.00 0.00 100 1019.6
20260505123823 19 224 3.2 6.4 0.00 0.00 0.00 100 1019.6
20260505115315 15 224 0.0 0.0 0.00 0.00 0.00 100 1019.5
20260505114315 13 224 0.0 0.0 0.00 0.00 0.00 100 1019.4
20260505113816 13 224 0.0 0.0 0.00 0.00 0.00 100 1019.3
20260505113316 12 224 0.0 0.0 0.00 0.00 0.00 100 1019.2
20260505112815 12 224 0.0 0.0 0.00 0.00 0.00 100 1019.2
20260505111312 11 224 0.0 0.0 0.00 0.00 0.00 100 1019.1
20260505110813 11 224 0.0 0.0 0.00 0.00 0.00 100 1018.9
20260505110312 11 224 0.0 0.0 0.00 0.00 0.00 100 1018.9
20260505101809 11 224 0.0 0.0 0.00 0.00 0.00 100 1018.4
20260505101310 11 224 0.0 0.0 0.00 0.00 0.00 100 1018.3
20260505100309 11 224 0.0 0.0 0.00 0.00 0.00 100 1018.3
20260505095809 11 224 0.0 0.0 0.00 0.00 0.00 100 1018.2
20260505095310 11 224 0.0 0.0 0.00 0.00 0.00 100 1018.2
20260505094807 11 224 0.0 0.0 0.00 0.00 0.00 100 1018.1
20260505094309 11 224 0.0 0.0 0.00 0.00 0.00 100 1018.1
20260505093808 11 224 0.0 0.0 0.00 0.00 0.00 100 1018.1
20260505092307 11 224 0.0 0.0 0.00 0.00 0.00 100 1018.0
20260505091808 11 224 0.0 0.0 0.00 0.00 0.00 100 1018.0
20260505091307 12 224 0.0 0.0 0.00 0.00 0.00 100 1017.9
20260505090308 12 224 0.0 0.0 0.00 0.00 0.00 100 1017.8
20260505085806 12 224 0.0 0.0 0.00 0.00 0.00 100 1017.7
20260505084805 12 224 0.0 0.0 0.00 0.00 0.00 100 1017.9
20260505084305 12 224 0.0 0.0 0.00 0.00 0.00 100 1017.8
20260505083807 12 224 0.0 0.0 0.00 0.00 0.00 100 1017.8
20260505083304 12 224 0.0 0.0 0.00 0.00 0.00 100 1017.7
20260505082806 12 224 0.0 0.0 0.00 0.00 0.00 100 1017.7
20260505082306 12 224 0.0 0.0 0.00 0.00 0.00 100 1017.7
20260505081806 12 224 0.0 0.0 0.00 0.00 0.00 100 1017.7
20260505081305 12 224 0.0 0.0 0.00 0.00 0.00 100 1017.8
20260505080803 12 224 0.0 0.0 0.00 0.00 0.00 100 1017.8
20260505080302 12 224 0.0 0.0 0.00 0.00 0.00 100 1017.8
20260505075803 12 224 0.0 0.0 0.00 0.00 0.00 100 1017.7
20260505075304 12 224 0.0 0.0 0.00 0.00 0.00 100 1017.6
20260505073803 13 224 0.0 0.0 0.00 0.00 0.00 100 1017.5
20260505073303 13 224 0.0 0.0 0.00 0.00 0.00 100 1017.4
20260505072804 13 224 0.0 0.0 0.00 0.00 0.00 100 1017.4
20260505072304 13 224 0.0 0.0 0.00 0.00 0.00 100 1017.4
20260505071802 13 224 0.0 0.0 0.00 0.00 0.00 100 1017.3
20260505071302 13 224 0.0 0.0 0.00 0.00 0.00 100 1017.3
20260505070800 13 224 0.0 0.0 0.00 0.00 0.00 100 1017.3
20260505070259 13 224 0.0 0.0 0.00 0.00 0.00 100 1017.5
20260505065757 13 224 0.0 0.0 0.00 0.00 0.00 100 1017.4
20260505065257 14 224 0.0 0.0 0.00 0.00 0.00 100 1017.5
20260505064758 14 224 0.0 0.0 0.00 0.00 0.00 100 1017.5
20260505064256 14 224 0.0 0.0 0.00 0.00 0.00 100 1017.5
20260505063757 14 224 0.0 0.0 0.00 0.00 0.00 100 1017.6
20260505063257 14 224 0.0 0.0 0.00 0.00 0.00 100 1017.6
20260505062756 14 224 0.0 0.0 0.00 0.00 0.00 100 1017.5
20260505062254 15 224 0.0 0.0 0.00 0.00 0.00 100 1017.6
20260505061756 15 224 0.0 0.0 0.00 0.00 0.00 100 1017.7
20260505055751 15 224 0.0 0.0 0.00 0.00 0.00 100 1018.0
20260505055251 15 224 0.0 0.0 0.00 0.00 0.00 100 1018.0
20260505054752 15 224 0.0 1.6 0.00 0.00 0.00 100 1017.9
20260505054252 15 224 1.6 4.8 0.00 0.00 0.00 100 1018.0
20260505053249 16 224 3.2 6.4 0.00 0.00 0.00 100 1018.0
20260505052750 15 224 1.6 4.8 0.00 0.00 0.00 100 1018.0
20260505052250 15 224 0.0 4.8 0.00 0.00 0.00 100 1018.0
20260505051750 15 224 0.0 0.0 0.00 0.00 0.00 100 1018.1
20260505051250 16 224 0.0 0.0 0.00 0.00 0.00 100 1018.1
20260505050750 16 224 0.0 3.2 0.00 0.00 0.00 100 1018.1
20260505050250 16 224 1.6 4.8 0.00 0.00 0.00 100 1018.1
20260505034733 17 224 1.6 3.2 0.00 0.00 0.00 100 1018.3
20260505034234 17 224 0.0 3.2 0.00 0.00 0.00 100 1018.2
20260505033730 17 224 0.0 3.2 0.00 0.00 0.00 100 1018.2
20260505033230 17 224 1.6 4.8 0.00 0.00 0.00 100 1018.4
20260505032729 17 224 1.6 4.8 0.00 0.00 0.00 100 1018.4
20260505032229 17 224 0.0 4.8 0.00 0.00 0.00 100 1018.4
20260505031729 17 224 0.0 1.6 0.00 0.00 0.00 100 1018.4
20260505031226 17 224 1.6 6.4 0.00 0.00 0.00 100 1018.6
20260505030725 17 224 3.2 6.4 0.00 0.00 0.00 100 1018.6
20260505030225 17 224 1.6 4.8 0.00 0.00 0.00 100 1018.7
20260505025226 17 224 3.2 4.8 0.00 0.00 0.00 100 1018.6
20260505024724 17 224 3.2 6.4 0.00 0.00 0.00 100 1018.7
20260505024226 17 224 3.2 6.4 0.00 0.00 0.00 100 1018.4
20260505023723 17 224 3.2 4.8 0.00 0.00 0.00 100 1018.7
20260505020723 18 225 3.2 6.4 0.00 0.00 0.00 100 1018.4
20260505020222 18 224 3.2 6.4 0.00 0.00 0.00 100 1018.4
20260505015724 18 225 3.2 6.4 0.00 0.00 0.00 100 1018.4
20260505014721 18 225 4.8 8.0 0.00 0.00 0.00 100 1018.6
20260505013720 18 224 4.8 8.0 0.00 0.00 0.00 100 1018.3
20260505013222 18 224 6.4 11.3 0.00 0.00 0.00 100 1018.3
20260505012721 18 224 4.8 11.3 0.00 0.00 0.00 100 1018.2
20260505011722 18 219 4.8 11.3 0.00 0.00 0.00 100 1018.1
20260505011221 18 218 6.4 12.9 0.00 0.00 0.00 100 1018.0
20260505010720 18 223 6.4 12.9 0.00 0.00 0.00 100 1017.9
20260505010220 18 220 6.4 11.3 0.00 0.00 0.00 100 1017.8
20260505005719 18 225 6.4 11.3 0.00 0.00 0.00 100 1017.7
20260505005218 18 225 4.8 11.3 0.00 0.00 0.00 100 1017.7
20260505004718 18 225 6.4 11.3 0.00 0.00 0.00 100 1017.7
20260505004216 18 225 6.4 11.3 0.00 0.00 0.00 100 1017.7
20260505003718 18 225 6.4 11.3 0.00 0.00 0.00 100 1017.7
20260505003216 18 223 6.4 11.3 0.00 0.00 0.00 100 1017.6
20260505002716 18 223 4.8 11.3 0.00 0.00 0.00 100 1017.5
20260505002217 18 224 6.4 11.3 0.00 0.00 0.00 100 1017.5
20260505001214 19 226 4.8 9.7 0.00 0.00 0.00 100 1017.5
20260504234210 19 223 4.8 8.0 0.00 0.00 0.00 100 1017.4
20260504233710 19 223 6.4 12.9 0.00 0.00 0.00 100 1017.4
20260504233211 19 222 6.4 12.9 0.00 0.00 0.00 100 1017.3
20260504232708 19 218 4.8 12.9 0.00 0.00 0.00 100 1017.1
20260504231708 20 218 6.4 14.5 0.00 0.00 0.00 100 1017.2
20260504230705 20 227 6.4 12.9 0.00 0.00 0.00 100 1017.2
20260504230206 20 218 6.4 12.9 0.00 0.00 0.00 100 1017.3
20260504225705 20 238 4.8 11.3 0.00 0.00 0.00 100 1017.3
20260504225205 20 207 4.8 8.0 0.00 0.00 0.00 100 1017.2
20260504224704 20 213 3.2 8.0 0.00 0.00 0.00 100 1017.2
20260504223704 20 214 4.8 14.5 0.00 0.00 0.00 100 1017.3
20260504223204 20 213 6.4 20.9 0.00 0.00 0.00 100 1017.3
20260504222705 20 231 8.0 20.9 0.00 0.00 0.00 100 1017.3
20260504222205 20 209 8.0 17.7 0.00 0.00 0.00 100 1017.2
20260504221204 21 219 6.4 16.1 0.00 0.00 0.00 100 1017.3
20260504220704 21 223 6.4 17.7 0.00 0.00 0.00 100 1017.4
20260504220204 21 169 4.8 17.7 0.00 0.00 0.00 100 1017.5
20260504215704 21 197 6.4 19.3 0.00 0.00 0.00 100 1017.4
20260504214705 21 223 8.0 17.7 0.00 0.00 0.00 100 1017.4
20260504214205 21 223 8.0 17.7 0.00 0.00 0.00 100 1017.5
20260504213204 21 225 8.0 20.9 0.00 0.00 0.00 100 1017.7
20260504212704 21 221 8.0 20.9 0.00 0.00 0.00 100 1017.5
20260504212204 21 211 8.0 20.9 0.00 0.00 0.00 100 1017.5
20260504211702 21 217 8.0 22.5 0.00 0.00 0.00 100 1017.5
20260504211203 21 207 9.7 22.5 0.00 0.00 0.00 100 1017.5
20260504210703 21 224 8.0 19.3 0.00 0.00 0.00 100 1017.4